Weather History for Ft Pierce, FL

Change the Weather History Date:

Thursday, September 12, 2013

  Actual Average Record
Temperature  
Mean Temperature 77 °F -  
Max Temperature 84 °F 89 °F 95 °F (1945)
Min Temperature 71 °F 72 °F 65 °F (1993)
Cooling Degree Days 12    
Growing Degree Days 27 (Base 50)    
Moisture  
Dew Point 73 °F    
Average Humidity 89    
Maximum Humidity 100    
Minimum Humidity 69    
Precipitation  
Precipitation 0.10 in - - ()
Sea Level Pressure  
Sea Level Pressure 29.97 in    
Wind  
Wind Speed 1 mph (ESE)    
Max Wind Speed 9 mph    
Max Gust Speed -    
Visibility 9 miles    
Events Rain , Thunderstorm    
Averages and records for this station are not official NWS values.
T = Trace of Precipitation, MM = Missing Value Source: NWS Daily Summary

Daily Weather History Graph

Daily Weather History Graph

Search for Another Location

Airport:

Trip Planner

Search our weather history database for the weather conditions in past years. The results will help you decide how hot, cold, wet, or windy it might be!

Date:

Astronomy

Sep. 12, 2013 Rise Set
Actual Time 7:05 AM EDT 7:29 PM EDT
Civil Twilight 6:42 AM EDT 7:52 PM EDT
Nautical Twilight 6:14 AM EDT 8:20 PM EDT
Astronomical Twilight 5:46 AM EDT 8:47 PM EDT
Moon 1:57 PM EDT (9/12) No Moon Set
Length of Visible Light 13h 10m
Length of Day
12h 23m
Waxing Crescent, 50% of the Moon is Illuminated
Sep 12
Waxing Crescent
Sep 12
First Quarter
Sep 19
Full
Sep 26
Last Quarter
Oct 4
New

Hourly Weather History & Observations

Time (EDT) Temp. Heat Index Dew Point Humidity Pressure Visibility Wind Dir Wind Speed Gust Speed Precip Events Conditions
12:53 AM 73.9 °F - 72.0 °F 93% 30.02 in 10.0 mi Calm Calm - N/A   Clear
1:53 AM 73.9 °F - 72.0 °F 93% 30.00 in 10.0 mi Calm Calm - N/A   Partly Cloudy
2:53 AM 73.9 °F - 71.1 °F 91% 29.99 in 10.0 mi Calm Calm - N/A   Clear
3:53 AM 73.0 °F - 71.1 °F 93% 29.98 in 9.0 mi Calm Calm - N/A   Clear
4:42 AM 73.4 °F - 71.6 °F 94% 29.97 in 9.0 mi Calm Calm - N/A   Mostly Cloudy
4:51 AM 73.4 °F - 71.6 °F 94% 29.98 in 10.0 mi Calm Calm - N/A   Mostly Cloudy
4:53 AM 73.9 °F - 72.0 °F 93% 29.98 in 10.0 mi Calm Calm - N/A   Mostly Cloudy
5:01 AM 75.2 °F - 73.4 °F 94% 29.98 in 9.0 mi Calm Calm - 0.00 in Rain Light Rain
5:13 AM 75.2 °F - 73.4 °F 94% 29.98 in 9.0 mi Calm Calm - 0.00 in Rain Light Rain
5:53 AM 75.0 °F - 72.0 °F 90% 29.99 in 10.0 mi Calm Calm - 0.00 in   Scattered Clouds
6:53 AM 75.0 °F - 73.0 °F 94% 29.99 in 10.0 mi Calm Calm - N/A   Mostly Cloudy
7:53 AM 75.0 °F - 73.0 °F 94% 30.01 in 9.0 mi Calm Calm - N/A   Partly Cloudy
8:53 AM 79.0 °F - 75.0 °F 88% 30.01 in 10.0 mi Calm Calm - N/A   Scattered Clouds
9:53 AM 81.0 °F 86.2 °F 73.9 °F 79% 30.03 in 10.0 mi East 9.2 mph - N/A   Scattered Clouds
10:53 AM 80.1 °F 83.8 °F 72.0 °F 76% 30.02 in 7.0 mi ENE 3.5 mph - 0.01 in Rain Light Rain
11:53 AM 82.9 °F 88.0 °F 72.0 °F 69% 30.01 in 10.0 mi East 5.8 mph - 0.00 in   Mostly Cloudy
12:48 PM 82.4 °F 88.2 °F 73.4 °F 74% 29.99 in 10.0 mi SE 6.9 mph - 0.00 in Thunderstorm Thunderstorm
12:53 PM 82.0 °F 87.4 °F 73.0 °F 74% 29.99 in 10.0 mi East 5.8 mph - 0.00 in Rain , Thunderstorm Light Thunderstorms and Rain
1:53 PM 82.0 °F 88.6 °F 75.0 °F 79% 29.98 in 10.0 mi East 3.5 mph - 0.00 in Rain , Thunderstorm Light Thunderstorms and Rain
2:53 PM 81.0 °F 86.7 °F 75.0 °F 82% 29.96 in 6.0 mi SE 4.6 mph - 0.03 in Rain , Thunderstorm Light Thunderstorms and Rain
3:53 PM 82.0 °F 88.6 °F 75.0 °F 79% 29.94 in 10.0 mi East 5.8 mph - 0.00 in Thunderstorm Thunderstorm
4:06 PM 80.6 °F 85.4 °F 73.4 °F 79% 29.94 in 10.0 mi SE 3.5 mph - N/A Thunderstorm Thunderstorm
4:48 PM 78.8 °F - 75.2 °F 89% 29.93 in 4.0 mi Calm Calm - 0.01 in Rain , Thunderstorm Light Thunderstorms and Rain
4:53 PM 78.1 °F - 75.0 °F 90% 29.93 in 6.0 mi North 3.5 mph - 0.01 in Rain , Thunderstorm Light Thunderstorms and Rain
5:53 PM 77.0 °F - 73.9 °F 90% 29.93 in 7.0 mi SW 5.8 mph - 0.04 in Rain , Thunderstorm Light Thunderstorms and Rain
6:01 PM 75.2 °F - 73.4 °F 94% 29.93 in 10.0 mi SW 4.6 mph - 0.00 in Rain Light Rain
6:53 PM 75.0 °F - 72.0 °F 90% 29.93 in 10.0 mi North 3.5 mph - 0.01 in   Clear
7:53 PM 73.9 °F - 73.0 °F 97% 29.93 in 10.0 mi Calm Calm - N/A   Clear
8:53 PM 73.0 °F - 72.0 °F 96% 29.95 in 10.0 mi SW 3.5 mph - N/A   Clear
9:53 PM 73.0 °F - 72.0 °F 96% 29.95 in 10.0 mi Calm Calm - N/A   Clear
10:53 PM 72.0 °F - 71.1 °F 97% 29.94 in 9.0 mi Calm Calm - N/A   Clear
11:53 PM 71.1 °F - 71.1 °F 100% 29.93 in 10.0 mi Calm Calm - N/A   Clear